Location: Bluff Heights
(33.7692°N, 118.1592°W)
Time: 17:43:00
(UTC+00:00)

Transit 2A Rocket - All Passes

Search period start: 28 July 2021 00:00
Search period end: 07 August 2021 00:00
Orbit: 589 x 913 km, 66.7° (Epoch: 28 July)

Date Brightness Start Highest point End Pass type
(mag) Time Alt. Az. Time Alt. Az. Time Alt. Az.
28 Jul - 00:01:16 10° WNW 00:03:24 13° NW 00:05:36 10° NNW daylight
28 Jul - 07:02:47 10° N 07:07:12 23° NE 07:11:50 10° ESE visible
28 Jul - 08:44:30 10° NW 08:49:59 49° WSW 08:55:46 10° S visible
28 Jul - 21:34:24 10° SSE 21:38:00 26° ESE 21:41:45 10° NE daylight
28 Jul - 23:16:54 10° WSW 23:20:27 24° NW 23:24:10 10° N daylight
29 Jul - 06:21:20 10° NNE 06:24:14 14° NE 06:27:13 10° E visible
29 Jul - 08:01:43 10° NNW 08:07:25 87° WSW 08:13:27 10° SSE visible
29 Jul - 20:53:44 10° SE 20:55:40 13° ESE 20:57:39 10° ENE daylight
29 Jul - 22:33:29 10° SW 22:37:38 44° WNW 22:42:04 10° NNE daylight
30 Jul - 07:19:12 10° NNW 07:24:45 55° ENE 07:30:38 10° SE visible
30 Jul - 09:02:59 10° WNW 09:06:59 19° WSW 09:11:06 10° SSW visible
30 Jul - 21:50:40 10° SSW 21:54:58 89° SE 21:59:35 10° NNE daylight
31 Jul - 06:36:57 10° N 06:42:00 32° ENE 06:47:17 10° ESE visible
31 Jul - 08:19:24 10° NW 08:24:33 34° WSW 08:29:55 10° S visible
31 Jul - 21:08:23 10° S 21:12:27 42° ESE 21:16:46 10° NE daylight
31 Jul - 22:52:25 10° W 22:55:14 16° NW 22:58:11 10° NNW daylight
01 Aug - 05:55:04 10° N 05:59:06 20° NE 06:03:18 10° E visible
01 Aug - 07:36:24 10° NW 07:42:02 61° WSW 07:47:58 10° SSE visible
01 Aug - 20:26:50 10° SSE 20:30:04 21° ESE 20:33:24 10° ENE daylight
01 Aug - 22:08:30 10° WSW 22:12:20 29° WNW 22:16:24 10° N daylight
02 Aug - 05:14:07 10° NNE 05:16:05 12° NE 05:18:05 10° ENE visible
02 Aug - 06:53:42 10° NNW 06:59:26 78° ENE 07:05:28 10° SSE visible
02 Aug - 08:38:56 10° WNW 08:41:27 13° WSW 08:44:01 10° SW visible
02 Aug - 21:25:18 10° SW 21:29:34 58° WNW 21:34:09 10° NNE daylight
03 Aug - 06:11:17 10° NNW 06:16:44 45° ENE 06:22:28 10° SE visible
03 Aug - 07:54:32 10° NW 07:59:05 24° WSW 08:03:46 10° SSW visible
03 Aug - 20:42:40 10° SSW 20:46:58 69° ESE 20:51:33 10° NNE daylight
03 Aug - 22:28:38 10° WNW 22:30:06 11° NW 22:31:36 10° NNW daylight
04 Aug - 05:29:08 10° N 05:33:56 27° NE 05:38:56 10° ESE visible
04 Aug - 07:11:12 10° NW 07:16:37 42° WSW 07:22:16 10° S visible
04 Aug - 20:00:38 10° S 20:04:29 32° ESE 20:08:34 10° NE daylight
04 Aug - 21:43:47 10° WSW 21:47:05 20° NW 21:50:35 10° N daylight
05 Aug - 04:47:26 10° NNE 04:51:00 17° NE 04:54:39 10° E visible
05 Aug - 06:28:20 10° NNW 06:34:04 75° WSW 06:40:07 10° SSE visible
05 Aug - 19:19:28 10° SE 19:22:08 16° ESE 19:24:54 10° ENE daylight
05 Aug - 21:00:10 10° SW 21:04:14 37° WNW 21:08:35 10° N daylight
06 Aug - 05:45:44 10° NNW 05:51:26 65° ENE 05:57:25 10° SE visible
06 Aug - 07:30:03 10° WNW 07:33:34 16° WSW 07:37:10 10° SW visible
06 Aug - 20:17:11 10° SSW 20:21:31 75° WNW 20:26:12 10° NNE daylight
